BREEZE-M R/B, 36102

Orbit data source: Space-Track

BREEZE-M R/B, 36102 is space debris in HEO originally from a launch on Tue, 24 Nov 2009 UTC launched from the Tyuratam Missile And Space Complex (TTMTR). Debris objects in space refer to the collection of defunct objects orbiting the Earth. Examples of debris include non-operational satellites, rocket bodies, and fragments generated from explosions, collisions, or faulty payload assembly.

Loading next visibility...
Identifier
36102, 2009-065B
Orbit
HEO
Country
Flag of CISCIS
Related business
Manufacturer
Khrunichev
Mission
Spacecraft
Bus & Motor
BRIZ, Unknown motor
Mass
~1,600 kg wet, 1,600 kg dry
Launch date (UTC)
2009-11-24 (16 years ago)
Launch vehicle
Unknown
Launch site
Tyuratam Missile And Space Complex (TTMTR)
Object type
Payload
Rocket body
Debris
Shape & HBR
Cyl, 2.0 m
Radar Cross Section
15.135 m², Large (>1 m²)

Expand to show TLE details & history
Last TLE update: 1 day ago

TLE from 1 day ago
0 BREEZE-M R/B
1 36102U 09065B   26036.40881736 -.00000058  00000-0  00000-0 0  9990
2 36102  20.7463 251.1670 5907686 202.7690 134.7720  2.20877875130526
Epoch: 2026-02-05T09:48Z
TLE epoch observation values (Epoch: 2026-02-05T09:48:41.819Z)
Latitude
2.79988°
Longitude
-24.16211°
Altitude
31,401.921 km
Speed
2.258 km/s
True Right ascension
17h 14m 17s
True Declination
2° 47' 48"
Sunlit
Object was in daylight at epoch
Visualization orbit readout
Latitude
Unknown
Longitude
Unknown
Altitude
Unknown
Speed
Unknown
Apparent Right ascension
Unknown
Apparent Declination
Unknown
Sunlit
N/A
Visualization observer readout
Local Sidereal Time
19:16:47
Azimuth
Unknown
Elevation
Unknown
Doppler factor
Unknown
Orbital elements
Apogee altitude
33,245.588 km
Perigee altitude
3,815.22 km
Semi-major axis
24,908.541 km
Eccentricity
0.59077
Inclination
20.7463°
RAAN
251.167°
Arg. of periapsis
202.769°
True anomaly
165.11804°
Mean anomaly
134.772°
Eccentric anomaly
151.12004°
Mean motion
0.5521 °/min
Orbital period
652.05 mins
BSTAR
0
Loading maneuver chart data...
Computing Atmospheric mass density...
Loading historical data...
Loading historical data...
Loading historical data...
Loading historical data...
Loading historical data...
Loading historical data...
Loading historical data...
Other satellites on launch #65 in the year 2009 (2009-11-24 UTC)

Documentation

Showing up to 5 results
|